• In Deutschland
  • Länderverzeichnis
  • Für 7 Tage
  • Wassertemperatur
  • Satellitenkarten
  • Wetterkarte
  • Widgets
  • user-avatar
    Anmelden

    Stündliche Wetter Lichtenfels

    Heute, 20 September, Donnerstag

    Zeit Temperatur Niederschläge Wind Luftdruck Luftfeuchtigkeit
    00:00 +19°C° 0 mm 1 m/S 739 mmHg 83%
    01:00 +19°C° 0 mm 1 m/S 739 mmHg 85%
    02:00 +18°C° 0 mm 1 m/S 739 mmHg 87%
    03:00 +18°C° 0 mm 1 m/S 739 mmHg 88%
    04:00 +18°C° 0 mm 1 m/S 739 mmHg 90%
    05:00 +18°C° 0 mm 1 m/S 739 mmHg 89%
    06:00 +18°C° 0 mm 1 m/S 739 mmHg 88%
    07:00 +18°C° 0 mm 1 m/S 739 mmHg 88%
    08:00 +20°C° 0 mm 2 m/S 739 mmHg 79%
    09:00 +23°C° 0 mm 2 m/S 739 mmHg 71%
    10:00 +25°C° 0 mm 2 m/S 740 mmHg 63%
    11:00 +26°C° 0 mm 3 m/S 739 mmHg 59%
    12:00 +27°C° 0 mm 3 m/S 739 mmHg 54%
    13:00 +28°C° 0 mm 3 m/S 739 mmHg 50%
    14:00 +28°C° 0 mm 3 m/S 738 mmHg 50%
    15:00 +28°C° 0 mm 3 m/S 738 mmHg 50%
    16:00 +28°C° 0 mm 3 m/S 738 mmHg 50%
    17:00 +26°C° 0 mm 2 m/S 737 mmHg 57%
    18:00 +24°C° 0 mm 2 m/S 737 mmHg 65%
    19:00 +22°C° 0 mm 1 m/S 736 mmHg 72%
    20:00 +21°C° 0 mm 1 m/S 736 mmHg 75%
    21:00 +19°C° 0 mm 2 m/S 736 mmHg 78%
    22:00 +19°C° 0 mm 2 m/S 736 mmHg 81%
    23:00 +18°C° 0 mm 2 m/S 736 mmHg 83%

    Morgen, 21 September, Freitag

    Zeit Temperatur Niederschläge Wind Luftdruck Luftfeuchtigkeit
    00:00 +18°C° 0 mm 2 m/S 736 mmHg 85%
    01:00 +17°C° 0 mm 2 m/S 735 mmHg 88%
    02:00 +17°C° 0 mm 2 m/S 735 mmHg 88%
    03:00 +17°C° 0 mm 2 m/S 734 mmHg 89%
    04:00 +16°C° 0 mm 2 m/S 734 mmHg 90%
    05:00 +17°C° 0 mm 2 m/S 734 mmHg 89%
    06:00 +17°C° 0 mm 3 m/S 733 mmHg 87%
    07:00 +17°C° 0 mm 3 m/S 733 mmHg 86%
    08:00 +19°C° 0 mm 4 m/S 733 mmHg 76%
    09:00 +22°C° 0 mm 4 m/S 733 mmHg 66%
    10:00 +25°C° 0 mm 5 m/S 733 mmHg 56%
    11:00 +26°C° 0 mm 6 m/S 733 mmHg 52%
    12:00 +27°C° 0 mm 7 m/S 733 mmHg 48%
    13:00 +28°C° 0 mm 8 m/S 733 mmHg 44%
    14:00 +26°C° 0 mm 7 m/S 733 mmHg 51%
    15:00 +23°C° 0 mm 7 m/S 733 mmHg 58%
    16:00 +21°C° 0 mm 6 m/S 734 mmHg 64%
    17:00 +19°C° 0.1 mm 5 m/S 734 mmHg 69%
    18:00 +18°C° 0.1 mm 4 m/S 735 mmHg 73%
    19:00 +16°C° 0.1 mm 3 m/S 736 mmHg 77%
    20:00 +14°C° 0 mm 3 m/S 736 mmHg 76%
    21:00 +14°C° 0 mm 2 m/S 737 mmHg 75%
    22:00 +13°C° 0 mm 2 m/S 738 mmHg 74%
    23:00 +12°C° 0 mm 2 m/S 738 mmHg 74%

    übermorgen, 22 September, Samstag

    Zeit Temperatur Niederschläge Wind Luftdruck Luftfeuchtigkeit
    00:00 +12°C° 0 mm 2 m/S 738 mmHg 73%
    01:00 +10°C° 0 mm 2 m/S 739 mmHg 72%
    02:00 +10°C° 0 mm 2 m/S 739 mmHg 71%
    03:00 +10°C° 0 mm 2 m/S 739 mmHg 71%
    04:00 +10°C° 0 mm 2 m/S 740 mmHg 70%
    05:00 +10°C° 0 mm 2 m/S 740 mmHg 70%
    06:00 +10°C° 0 mm 3 m/S 740 mmHg 70%
    07:00 +10°C° 0 mm 3 m/S 740 mmHg 70%
    08:00 +12°C° 0 mm 3 m/S 741 mmHg 65%
    09:00 +13°C° 0 mm 4 m/S 741 mmHg 59%
    10:00 +14°C° 0 mm 4 m/S 741 mmHg 54%
    11:00 +15°C° 0 mm 5 m/S 741 mmHg 50%
    12:00 +16°C° 0 mm 5 m/S 741 mmHg 47%
    13:00 +17°C° 0 mm 5 m/S 740 mmHg 43%
    14:00 +17°C° 0 mm 5 m/S 740 mmHg 43%
    15:00 +16°C° 0 mm 5 m/S 740 mmHg 43%
    16:00 +16°C° 0 mm 5 m/S 740 mmHg 43%
    17:00 +15°C° 0 mm 4 m/S 740 mmHg 49%
    18:00 +14°C° 0 mm 3 m/S 740 mmHg 54%
    19:00 +13°C° 0 mm 2 m/S 740 mmHg 59%
    20:00 +13°C° 0 mm 2 m/S 741 mmHg 61%
    21:00 +12°C° 0 mm 1 m/S 741 mmHg 64%
    22:00 +12°C° 0 mm 1 m/S 741 mmHg 66%
    23:00 +11°C° 0 mm 1 m/S 741 mmHg 67%

    23 September, Sonntag

    Zeit Temperatur Niederschläge Wind Luftdruck Luftfeuchtigkeit
    00:00 +11°C° 0 mm 1 m/S 740 mmHg 68%
    01:00 +11°C° 0 mm 1 m/S 740 mmHg 70%
    02:00 +11°C° 0.1 mm 1 m/S 740 mmHg 73%
    03:00 +11°C° 0.1 mm 1 m/S 739 mmHg 76%
    04:00 +11°C° 0.1 mm 1 m/S 739 mmHg 79%
    05:00 +10°C° 1.1 mm 2 m/S 739 mmHg 83%
    06:00 +9°C° 1.1 mm 2 m/S 739 mmHg 88%
    07:00 +9°C° 1.1 mm 2 m/S 738 mmHg 93%
    08:00 +10°C° 0.2 mm 3 m/S 738 mmHg 91%
    09:00 +11°C° 0.2 mm 3 m/S 737 mmHg 89%
    10:00 +11°C° 0.2 mm 4 m/S 736 mmHg 87%
    11:00 +12°C° 0.2 mm 4 m/S 735 mmHg 86%
    12:00 +13°C° 0.2 mm 5 m/S 734 mmHg 85%
    13:00 +14°C° 0.2 mm 5 m/S 732 mmHg 84%
    14:00 +17°C° 0.1 mm 4 m/S 731 mmHg 83%
    15:00 +18°C° 0.1 mm 4 m/S 730 mmHg 81%
    16:00 +20°C° 0.1 mm 4 m/S 729 mmHg 80%
    17:00 +20°C° 0.2 mm 4 m/S 728 mmHg 80%
    18:00 +20°C° 0.2 mm 4 m/S 727 mmHg 80%
    19:00 +20°C° 0.2 mm 4 m/S 726 mmHg 81%
    20:00 +20°C° 1 mm 5 m/S 725 mmHg 82%
    21:00 +20°C° 1 mm 6 m/S 724 mmHg 84%
    22:00 +18°C° 1 mm 7 m/S 723 mmHg 86%
    23:00 +16°C° 0.5 mm 8 m/S 723 mmHg 81%

    24 September, Montag

    Zeit Temperatur Niederschläge Wind Luftdruck Luftfeuchtigkeit
    00:00 +13°C° 0.5 mm 9 m/S 722 mmHg 76%
    01:00 +11°C° 0.5 mm 10 m/S 722 mmHg 71%
    02:00 +11°C° 0.5 mm 11 m/S 723 mmHg 75%
    03:00 +11°C° 0.5 mm 11 m/S 725 mmHg 78%
    04:00 +10°C° 0.5 mm 12 m/S 726 mmHg 82%
    05:00 +9°C° 0.4 mm 11 m/S 728 mmHg 82%
    06:00 +8°C° 0.4 mm 10 m/S 731 mmHg 83%
    07:00 +7°C° 0.4 mm 9 m/S 733 mmHg 83%
    08:00 +7°C° 0.3 mm 9 m/S 735 mmHg 80%
    09:00 +8°C° 0.3 mm 9 m/S 736 mmHg 78%
    10:00 +9°C° 0.3 mm 8 m/S 738 mmHg 75%
    11:00 +10°C° 0.2 mm 8 m/S 739 mmHg 69%
    12:00 +11°C° 0.2 mm 8 m/S 739 mmHg 63%
    13:00 +12°C° 0.2 mm 8 m/S 740 mmHg 58%
    14:00 +12°C° 0.1 mm 8 m/S 741 mmHg 57%
    15:00 +11°C° 0.1 mm 8 m/S 741 mmHg 56%
    16:00 +11°C° 0.1 mm 7 m/S 742 mmHg 55%
    17:00 +10°C° 0 mm 6 m/S 742 mmHg 60%
    18:00 +9°C° 0 mm 6 m/S 743 mmHg 64%
    19:00 +8°C° 0 mm 5 m/S 744 mmHg 69%
    20:00 +7°C° 0 mm 4 m/S 744 mmHg 72%
    21:00 +7°C° 0 mm 4 m/S 745 mmHg 75%
    22:00 +6°C° 0 mm 4 m/S 746 mmHg 79%
    23:00 +5°C° 0 mm 3 m/S 746 mmHg 81%

    25 September, Dienstag

    Zeit Temperatur Niederschläge Wind Luftdruck Luftfeuchtigkeit
    00:00 +5°C° 0 mm 3 m/S 746 mmHg 83%
    01:00 +5°C° 0 mm 3 m/S 747 mmHg 84%
    02:00 +5°C° 0 mm 4 m/S 747 mmHg 84%
    03:00 +5°C° 0 mm 4 m/S 747 mmHg 84%
    04:00 +5°C° 0 mm 4 m/S 747 mmHg 84%
    05:00 +5°C° 0.1 mm 4 m/S 747 mmHg 84%
    06:00 +6°C° 0.1 mm 4 m/S 747 mmHg 84%
    07:00 +6°C° 0.1 mm 5 m/S 748 mmHg 84%
    08:00 +7°C° 0.1 mm 5 m/S 748 mmHg 80%
    09:00 +9°C° 0.1 mm 5 m/S 748 mmHg 77%
    10:00 +10°C° 0.1 mm 5 m/S 749 mmHg 73%
    11:00 +12°C° 0.1 mm 5 m/S 749 mmHg 69%
    12:00 +12°C° 0.1 mm 5 m/S 749 mmHg 64%
    13:00 +13°C° 0.1 mm 5 m/S 749 mmHg 60%
    14:00 +13°C° 0.1 mm 4 m/S 749 mmHg 61%
    15:00 +13°C° 0.1 mm 4 m/S 748 mmHg 61%
    16:00 +13°C° 0.1 mm 4 m/S 748 mmHg 62%
    17:00 +12°C° 0 mm 3 m/S 748 mmHg 70%
    18:00 +12°C° 0 mm 2 m/S 748 mmHg 77%
    19:00 +10°C° 0 mm 1 m/S 748 mmHg 84%
    20:00 +10°C° 0 mm 1 m/S 749 mmHg 86%
    21:00 +9°C° 0 mm 1 m/S 749 mmHg 88%
    22:00 +9°C° 0 mm 1 m/S 749 mmHg 90%
    23:00 +8°C° 0 mm 1 m/S 749 mmHg 90%
    Mehr zeigen